SCP
-0 -0 -0 -0 -0 -0 -0 -0 -0 -0 -0 0 -0 -0 -0 -0 -0 -0 -0 -0 -0 -0 -0 -0 -0 -0 -0 -0 -0 -0 -0 -0 -0 -0 -0 -0 -0 -0 -0 -0 -0 -0 -0
-0 -0 -0 -0 -0 -0 -0 -0 -0 -0 -0 -0 -0 0 -0 -0 -0 -0 -0 -0 -0 -0 0 0 0 0 -0 -0 -0 -0 -0 -0 -0 -0 -0 -0 -0 -0 -0 -0 -0 -0 -0
-0 0 -0 -0 -0 -0 -0 -0 -0 -0 -0 -0 -0 -0 -0 -0 -0 -0 -0 -0 -0 -0 -0 -0 -0 -0 -0 -0 -0 -0 -0 -0 -0 -0 -0 -0 -0 -0 -0 -0 -0 -0 -0
-0 -0 -0 -0 -0 -0 -0 -0 -0 -0 -0 -0 -0 -0 -0 -0 -0 -0 -0 -0 -0 -0 -0 -0 -0 -0 -0 -0 -0 -0 -0 -0 -0 -0 -0 -0 -0 -0 -0 -0 -0 -0 -0
-0 -0 -0 -0 -0 -0 -0 -0 -0 -0 -0 -0 -0 -0 -0 -0 -0 -0 -0 -0 -0 -0 -0 -0 -0 -0 -0 -0 -0 -0 -0 -0 -0 -0 -0 -0 -0 -0 -0 -0 -0 -0 -0
-0 -0 -0 -0 -0 -0 -0 -0 -0 -0 -0 -0 -0 -0 -0 -0 -0 -0 -0 -0 -0 -0 -0 -0 -0 -0 -0 -0 -0 -0 -0 -0 -0 -0 -0 -0 -0 -0 -0 -0 -0 -0 -0
-0 -0 -0 -0 -0 -0 -0 -0 -0 -0 -0 -0 -0 -0 -0 -0 -0 -0 -0 -0 -0 -0 -0 -0 -0 -0 -0 -0 -0 -0 -0 -0 -0 -0 -0 -0 -0 -0 -0 -0 -0 -0 -0
-0 -0 -0 -0 -0 -0 -0 -0 -0 -0 -0 -0 -0 -0 -0 -0 -0 -0 -0 -0 -0 -0 -0 -0 -0 -0 -0 -0 -0 -0 -0 -0 -0 -0 -0 -0 -0 -0 -0 -0 -0 -0 -0
-0 -0 -0 -0 -0 -0 -0 -0 -0 -0 -0 -0 -0 -0 -0 -0 -0 -0 -0 -0 -0 -0 -0 -0 -0 -0 -0 -0 -0 -0 -0 -0 -0 0 0 0 -0 -0 -0 -0 -0 -0 -0
0 0 -0 -0 -0 -0 -0 -0 -0 -0 -0 -0 -0 -0 -0 -0 -0 -0 -0 -0 -0 -0 -0 -0 -0 -0 -0 -0 -0 -0 -0 -0 -0 0 0 0 -0 -0 -0 -0 -0 -0 -0
0 0 0 0 -0 -0 0 -0 -0 -0 -0 -0 -0 -0 -0 0 0 -0 -0 -0 -0 -0 -0 -0 -0 -0 -0 -0 -0 -0 -0 0 0 0 0 0 -0 -0 -0 -0 -0 -0 0
0 0 0 0 0 0 0 0 0 0 0 0 0 0 0 0 0 0 0 -0 -0 -0 -0 -0 -0 -0 -0 0 0 0 0 0 0 0 0 0 -0 -0 -0 -0 0 0 -0
0 0 0 0 0 0 0 0 0 0 0 0 0 0 0 0 0 0 0 0 0 0 0 0 0 0 0 0 0 0 0 0 0 0 0 0 0 0 -0 -0 -0 -0 -0
0 0 0 0 0 0 0 0 0 0 0 0 0 0 0 0 0 0 0 0 0 0 0 0 0 0 0 0 0 0 0 0 0 0 0 0 0 -0 -0 -0 -0 -0 -0
0 0 0 0 0 0 0 0 0 0 0 0 0 0 0 0 0 0 0 0 0 0 0 0 0 0 0 0 0 0 0 0 0 0 0 0 0 -0 -0 -0 -0 -0 -0
0 0 0 0 0 0 0 0 0 0 0 0 0 0 0 0 0 0 0 0 0 0 0 0 0 0 0 0 0 0 0 0 0 0 0 0 0 0 0 0 0 0 0
0 0 0 0 0 0 0 0 0 0 0 0 0 0 0 0 0 0 0 0 0 0 0 0 0 0 0 0 0 0 0 0 0 0 0 0 0 0 0 0 0 0 0
0 0 0 0 0 0 0 0 0 0 0 0 0 0 0 0 0 0 0 0 0 0 0 0 0 0 0 0 0 0 0 0 0 0 0 0 0 0 0 0 0 0 0
0 0 0 0 0 0 0 0 0 0 0 0 0 0 0 0 0 0 0 0 0 0 0 0 0 0 0 0 0 0 0 0 0 0 0 0 0 0 0 0 0 0 0
0 0 0 0 0 0 0 0 0 0 0 0 0 0 0 0 0 0 0 0 0 0 0 0 0 0 0 0 0 0 0 0 0 0 0 0 0 0 0 0 0 0 0
0 0 0 0 0 0 0 0 0 0 0 0 0 0 0 0 0 0 0 0 0 0 0 0 0 0 0 0 0 0 0 0 0 0 0 0 0 0 0 0 0 0 0
0 0 0 0 0 0 0 0 0 0 0 0 0 0 0 0 0 0 0 0 0 0 0 0 0 0 0 0 0 0 0 0 0 0 0 0 0 0 0 0 0 0 0
0 0 0 0 0 0 0 0 0 0 0 0 0 0 0 0 0 0 0 0 0 0 0 0 0 0 0 0 0 0 0 0 0 0 0 0 0 0 0 0 0 0 0
0 0 0 0 0 0 0 0 0 0 0 0 0 0 0 0 0 0 0 0 0 0 0 0 0 0 0 0 0 0 0 0 0 0 0 0 0 0 0 0 0 0 0
0 0 0 0 0 0 0 0 0 0 0 0 0 0 0 0 0 0 0 0 0 0 0 0 0 0 0 0 0 0 0 0 0 0 0 0 0 0 0 0 0 0 0
0 0 0 0 0 0 0 0 0 0 0 0 0 0 0 0 0 0 0 0 0 0 0 0 0 0 0 0 0 0 0 0 0 0 0 0 0 0 0 0 0 0 0
Wind_Speed_500mb
34 32 34 30 31 27 26 24 24 22 20 20 19 19 21 24 23 23 23 24 25 24 28 28 30 27 30 29 28 29 31 28 24 25 26 30 35 35 34 33 36 40 40
36 33 32 30 29 27 25 23 20 21 20 18 18 21 26 25 25 22 21 24 24 22 25 25 26 31 29 30 35 34 36 37 32 29 24 23 24 24 20 20 26 29 32
36 36 34 32 29 27 25 24 21 18 15 15 18 22 25 26 28 28 25 24 22 21 24 23 24 32 27 30 38 46 42 39 39 34 32 31 29 26 24 23 22 19 21
37 37 34 32 30 28 24 21 19 14 10 14 19 22 24 26 28 28 27 24 23 22 21 20 28 29 24 26 32 37 37 38 34 34 35 33 33 30 29 28 25 24 21
41 38 35 32 29 27 25 22 18 14 9 12 16 19 22 24 25 26 24 23 23 22 21 26 27 23 21 23 27 28 29 30 29 31 32 33 35 31 30 30 28 27 23
40 37 34 32 29 26 24 21 17 15 15 9 14 16 17 19 22 23 23 23 22 21 22 26 25 23 21 20 22 23 24 25 27 30 31 32 36 33 32 32 31 29 26
42 36 33 30 28 26 23 21 19 17 15 8 13 14 15 16 18 20 21 21 21 22 22 24 23 22 20 17 17 16 20 22 23 26 29 36 36 36 36 33 32 31 30
39 34 32 30 27 25 24 22 19 18 16 10 12 11 11 13 15 18 17 17 19 21 22 22 22 20 17 14 13 14 18 20 21 24 28 34 35 40 40 41 38 35 33
39 36 29 28 25 22 21 21 20 18 17 13 14 12 8 8 12 16 15 15 17 19 21 21 20 18 16 15 14 16 17 18 19 24 27 32 36 38 35 37 41 43 41
44 43 38 32 27 25 23 20 19 19 17 16 16 15 10 9 12 15 17 18 18 18 19 19 19 18 17 17 18 18 18 19 22 23 29 30 24 27 29 32 27 38 38
44 47 45 41 35 33 32 29 22 18 15 13 16 16 12 6 11 15 17 20 20 21 21 20 19 19 18 18 19 19 17 22 20 27 38 39 39 39 39 38 37 42 36
48 50 47 42 41 38 36 35 31 26 24 22 20 20 14 9 7 9 9 14 18 18 19 20 20 19 18 18 20 18 20 21 21 27 41 41 39 39 41 44 45 45 41
47 50 51 51 46 39 40 40 35 32 33 32 30 25 21 16 14 12 10 8 5 8 13 15 16 15 14 14 14 15 17 16 17 19 23 30 42 42 43 45 45 44 40
52 50 52 52 55 45 42 42 38 38 36 37 36 32 29 24 19 17 18 17 11 7 0 2 3 5 7 9 10 11 13 14 16 17 21 19 46 50 44 40 37 37 35
54 53 53 53 54 53 50 45 46 45 40 39 39 39 35 31 26 25 25 21 18 14 11 7 4 2 3 6 8 10 12 16 22 28 31 31 33 46 50 49 52 51 48
56 56 55 54 54 57 56 54 53 50 48 48 45 44 42 38 32 30 30 30 25 24 19 13 10 7 7 6 7 10 13 22 28 31 34 33 32 30 30 32 44 43 41
58 57 57 55 55 56 56 57 58 55 52 54 50 46 47 44 38 34 36 37 35 31 29 20 15 12 12 8 9 15 20 25 27 27 26 25 23 23 23 21 21 23 28
62 61 58 58 57 57 59 60 61 61 59 56 57 52 47 42 42 39 42 47 40 46 40 28 24 20 18 15 18 20 23 25 24 21 20 19 19 20 19 20 19 19 21
66 64 64 62 60 59 61 61 62 64 65 65 61 60 50 56 53 48 52 46 46 40 40 31 27 23 25 26 27 29 29 25 20 18 14 14 15 14 14 15 16 17 20
67 67 66 65 64 61 60 59 61 62 63 70 68 64 60 58 52 50 58 52 56 45 46 35 28 31 27 37 37 37 31 24 18 13 9 9 9 12 16 17 18 22 26
72 73 72 70 68 66 64 63 62 62 63 69 68 65 64 63 66 61 54 62 63 58 47 37 35 38 47 44 43 43 33 23 15 11 7 6 8 13 15 17 21 24 27
77 77 75 73 70 69 68 66 63 61 62 62 65 64 64 57 68 62 63 70 67 58 54 44 46 53 52 52 48 40 29 22 19 13 8 5 6 11 12 15 20 23 25
78 81 80 77 73 71 71 68 65 60 61 66 66 68 70 61 61 57 58 54 58 64 51 52 55 57 59 60 54 27 20 18 34 19 12 6 4 5 10 15 18 20 23
72 79 83 81 77 73 71 70 69 71 72 74 71 75 73 62 56 66 52 67 65 57 52 52 57 57 52 59 56 45 21 16 24 24 22 14 6 1 6 10 14 18 22
49 64 78 82 80 77 71 68 66 65 66 64 65 67 65 66 62 62 62 53 56 54 53 55 58 57 54 53 47 41 34 29 25 19 30 27 15 7 4 6 10 16 21
35 48 65 77 81 79 71 69 66 65 65 63 70 70 72 70 72 66 60 59 56 54 57 58 59 56 52 48 41 37 31 33 31 25 21 29 19 12 8 4 6 13 18
Wind_Direction_500mb
165 162 163 160 157 152 141 135 128 117 111 99 84 75 73 71 70 71 76 75 73 76 82 85 84 81 73 69 71 74 77 82 80 77 78 85 86 85 80 79 82 76 70
161 161 159 160 158 157 146 141 129 121 115 105 82 71 66 61 65 70 78 83 79 83 88 82 84 80 71 69 64 68 74 72 73 75 81 89 86 86 83 77 72 76 76
167 163 160 163 162 161 153 148 138 126 113 103 78 70 67 67 64 66 70 76 79 79 85 89 91 83 86 66 64 69 72 73 69 70 76 83 81 81 80 77 72 75 76
172 169 166 163 166 164 160 154 142 138 114 110 90 81 78 72 70 71 74 79 80 79 81 88 93 88 86 75 69 72 69 66 66 70 77 80 77 81 81 80 77 74 75
174 175 172 171 173 172 168 164 155 147 139 114 92 85 82 77 73 72 74 78 83 86 89 96 100 104 91 82 75 71 64 60 58 69 73 74 73 73 78 79 77 75 73
174 177 178 179 180 180 177 172 166 161 155 116 110 99 91 77 71 72 78 79 81 87 94 103 109 113 107 90 82 64 56 55 59 63 66 68 67 64 66 69 70 70 67
174 177 181 184 186 185 185 181 178 175 173 153 127 115 102 86 75 72 73 81 90 92 95 100 106 107 104 98 80 61 58 60 64 72 75 73 67 66 64 67 67 69 68
178 176 182 186 189 192 191 192 190 185 186 167 154 139 115 89 75 71 75 85 91 96 99 103 105 110 115 101 85 74 66 69 72 74 74 75 73 67 63 61 58 58 61
174 186 188 189 189 193 197 198 195 192 194 185 175 167 144 95 76 75 81 87 94 98 100 102 105 108 104 98 89 80 81 83 82 80 78 75 70 65 71 77 72 65 59
183 184 189 204 203 193 209 222 207 207 207 200 189 185 173 127 96 82 85 84 87 91 92 94 95 96 96 92 87 84 81 79 74 73 69 65 53 55 54 53 64 70 70
187 190 191 199 207 200 209 217 220 221 215 213 206 197 178 134 96 82 86 82 86 89 91 93 94 91 86 87 86 82 81 77 76 73 63 62 61 62 61 60 61 62 63
194 196 197 197 207 209 213 214 219 221 219 218 221 221 211 196 163 146 106 83 82 77 79 81 84 85 86 89 90 88 79 78 77 80 87 82 77 74 75 74 71 65 62
202 203 204 204 208 206 214 219 219 219 217 213 222 218 224 216 206 193 192 162 113 65 54 70 81 94 102 99 91 81 77 71 74 85 96 91 82 76 69 67 70 80 76
212 211 212 214 219 220 214 219 220 222 224 226 223 218 217 214 218 213 214 192 197 163 32 27 33 53 112 104 87 79 74 69 75 87 98 95 90 83 87 90 80 77 72
219 219 219 221 224 229 227 219 221 220 225 230 226 224 222 222 221 221 218 210 197 188 170 267 242 275 172 125 105 86 73 78 88 88 91 92 97 96 91 81 73 68 65
224 225 226 228 230 231 233 229 219 223 226 230 233 229 226 224 222 233 224 216 211 198 196 196 206 201 197 133 114 100 94 103 103 101 96 92 86 77 70 68 72 72 64
232 231 233 235 237 236 234 231 228 225 221 227 233 233 228 229 225 231 234 223 213 206 208 200 205 211 218 201 165 125 120 117 113 107 102 96 87 78 71 65 53 44 46
235 236 237 238 240 239 237 234 232 228 223 221 226 235 236 233 233 231 237 228 223 218 203 205 208 216 216 199 178 146 138 130 122 113 102 92 81 70 64 54 40 27 22
236 237 238 240 241 241 239 237 234 232 228 223 225 229 231 235 236 229 235 228 221 222 200 219 204 217 217 194 171 154 147 143 133 117 102 82 68 60 52 52 49 43 37
236 236 237 239 243 242 237 235 233 232 229 222 221 228 232 233 232 242 238 229 221 216 194 204 224 201 215 187 167 156 148 144 133 124 104 80 71 62 56 48 38 31 30
239 238 237 238 238 238 235 232 231 229 225 224 222 225 230 231 236 235 229 230 216 211 225 223 218 221 191 189 177 155 146 144 150 146 121 89 69 57 47 36 29 25 19
241 240 239 239 238 238 237 237 235 231 226 228 220 223 229 231 226 237 218 241 214 214 214 218 220 199 196 191 183 166 150 155 167 165 155 127 70 50 32 25 18 11 8
243 241 240 240 238 237 236 234 231 227 226 220 226 220 223 229 230 234 225 229 227 208 218 237 220 213 206 195 191 183 170 188 181 181 179 165 95 43 22 15 4 4 4
251 242 239 238 238 237 236 232 231 232 230 228 220 219 226 231 226 237 236 224 217 210 239 229 212 216 218 202 198 205 206 199 178 179 192 186 177 77 359 353 358 358 2
249 245 241 238 237 236 235 232 231 232 231 233 230 225 220 221 220 213 219 220 232 228 223 215 210 207 208 209 214 216 219 213 208 193 188 192 193 216 281 335 349 356 357
242 238 238 236 236 236 232 231 231 236 230 223 223 218 214 213 216 216 222 227 224 218 212 208 203 201 205 211 224 221 226 215 215 209 192 189 201 208 220 275 329 340 344
Wind_Speed_850mb
34 32 34 30 31 27 26 24 24 22 20 20 19 19 21 24 23 23 23 24 25 24 28 28 30 27 30 29 28 29 31 28 24 25 26 30 35 35 34 33 36 40 40
36 33 32 30 29 27 25 23 20 21 20 18 18 21 26 25 25 22 21 24 24 22 25 25 26 31 29 30 35 34 36 37 32 29 24 23 24 24 20 20 26 29 32
36 36 34 32 29 27 25 24 21 18 15 15 18 22 25 26 28 28 25 24 22 21 24 23 24 32 27 30 38 46 42 39 39 34 32 31 29 26 24 23 22 19 21
37 37 34 32 30 28 24 21 19 14 10 14 19 22 24 26 28 28 27 24 23 22 21 20 28 29 24 26 32 37 37 38 34 34 35 33 33 30 29 28 25 24 21
41 38 35 32 29 27 25 22 18 14 9 12 16 19 22 24 25 26 24 23 23 22 21 26 27 23 21 23 27 28 29 30 29 31 32 33 35 31 30 30 28 27 23
40 37 34 32 29 26 24 21 17 15 15 9 14 16 17 19 22 23 23 23 22 21 22 26 25 23 21 20 22 23 24 25 27 30 31 32 36 33 32 32 31 29 26
42 36 33 30 28 26 23 21 19 17 15 8 13 14 15 16 18 20 21 21 21 22 22 24 23 22 20 17 17 16 20 22 23 26 29 36 36 36 36 33 32 31 30
39 34 32 30 27 25 24 22 19 18 16 10 12 11 11 13 15 18 17 17 19 21 22 22 22 20 17 14 13 14 18 20 21 24 28 34 35 40 40 41 38 35 33
39 36 29 28 25 22 21 21 20 18 17 13 14 12 8 8 12 16 15 15 17 19 21 21 20 18 16 15 14 16 17 18 19 24 27 32 36 38 35 37 41 43 41
44 43 38 32 27 25 23 20 19 19 17 16 16 15 10 9 12 15 17 18 18 18 19 19 19 18 17 17 18 18 18 19 22 23 29 30 24 27 29 32 27 38 38
44 47 45 41 35 33 32 29 22 18 15 13 16 16 12 6 11 15 17 20 20 21 21 20 19 19 18 18 19 19 17 22 20 27 38 39 39 39 39 38 37 42 36
48 50 47 42 41 38 36 35 31 26 24 22 20 20 14 9 7 9 9 14 18 18 19 20 20 19 18 18 20 18 20 21 21 27 41 41 39 39 41 44 45 45 41
47 50 51 51 46 39 40 40 35 32 33 32 30 25 21 16 14 12 10 8 5 8 13 15 16 15 14 14 14 15 17 16 17 19 23 30 42 42 43 45 45 44 40
52 50 52 52 55 45 42 42 38 38 36 37 36 32 29 24 19 17 18 17 11 7 0 2 3 5 7 9 10 11 13 14 16 17 21 19 46 50 44 40 37 37 35
54 53 53 53 54 53 50 45 46 45 40 39 39 39 35 31 26 25 25 21 18 14 11 7 4 2 3 6 8 10 12 16 22 28 31 31 33 46 50 49 52 51 48
56 56 55 54 54 57 56 54 53 50 48 48 45 44 42 38 32 30 30 30 25 24 19 13 10 7 7 6 7 10 13 22 28 31 34 33 32 30 30 32 44 43 41
58 57 57 55 55 56 56 57 58 55 52 54 50 46 47 44 38 34 36 37 35 31 29 20 15 12 12 8 9 15 20 25 27 27 26 25 23 23 23 21 21 23 28
62 61 58 58 57 57 59 60 61 61 59 56 57 52 47 42 42 39 42 47 40 46 40 28 24 20 18 15 18 20 23 25 24 21 20 19 19 20 19 20 19 19 21
66 64 64 62 60 59 61 61 62 64 65 65 61 60 50 56 53 48 52 46 46 40 40 31 27 23 25 26 27 29 29 25 20 18 14 14 15 14 14 15 16 17 20
67 67 66 65 64 61 60 59 61 62 63 70 68 64 60 58 52 50 58 52 56 45 46 35 28 31 27 37 37 37 31 24 18 13 9 9 9 12 16 17 18 22 26
72 73 72 70 68 66 64 63 62 62 63 69 68 65 64 63 66 61 54 62 63 58 47 37 35 38 47 44 43 43 33 23 15 11 7 6 8 13 15 17 21 24 27
77 77 75 73 70 69 68 66 63 61 62 62 65 64 64 57 68 62 63 70 67 58 54 44 46 53 52 52 48 40 29 22 19 13 8 5 6 11 12 15 20 23 25
78 81 80 77 73 71 71 68 65 60 61 66 66 68 70 61 61 57 58 54 58 64 51 52 55 57 59 60 54 27 20 18 34 19 12 6 4 5 10 15 18 20 23
72 79 83 81 77 73 71 70 69 71 72 74 71 75 73 62 56 66 52 67 65 57 52 52 57 57 52 59 56 45 21 16 24 24 22 14 6 1 6 10 14 18 22
49 64 78 82 80 77 71 68 66 65 66 64 65 67 65 66 62 62 62 53 56 54 53 55 58 57 54 53 47 41 34 29 25 19 30 27 15 7 4 6 10 16 21
35 48 65 77 81 79 71 69 66 65 65 63 70 70 72 70 72 66 60 59 56 54 57 58 59 56 52 48 41 37 31 33 31 25 21 29 19 12 8 4 6 13 18
Wind_Direction_850mb
165 162 163 160 157 152 141 135 128 117 111 99 84 75 73 71 70 71 76 75 73 76 82 85 84 81 73 69 71 74 77 82 80 77 78 85 86 85 80 79 82 76 70
161 161 159 160 158 157 146 141 129 121 115 105 82 71 66 61 65 70 78 83 79 83 88 82 84 80 71 69 64 68 74 72 73 75 81 89 86 86 83 77 72 76 76
167 163 160 163 162 161 153 148 138 126 113 103 78 70 67 67 64 66 70 76 79 79 85 89 91 83 86 66 64 69 72 73 69 70 76 83 81 81 80 77 72 75 76
172 169 166 163 166 164 160 154 142 138 114 110 90 81 78 72 70 71 74 79 80 79 81 88 93 88 86 75 69 72 69 66 66 70 77 80 77 81 81 80 77 74 75
174 175 172 171 173 172 168 164 155 147 139 114 92 85 82 77 73 72 74 78 83 86 89 96 100 104 91 82 75 71 64 60 58 69 73 74 73 73 78 79 77 75 73
174 177 178 179 180 180 177 172 166 161 155 116 110 99 91 77 71 72 78 79 81 87 94 103 109 113 107 90 82 64 56 55 59 63 66 68 67 64 66 69 70 70 67
174 177 181 184 186 185 185 181 178 175 173 153 127 115 102 86 75 72 73 81 90 92 95 100 106 107 104 98 80 61 58 60 64 72 75 73 67 66 64 67 67 69 68
178 176 182 186 189 192 191 192 190 185 186 167 154 139 115 89 75 71 75 85 91 96 99 103 105 110 115 101 85 74 66 69 72 74 74 75 73 67 63 61 58 58 61
174 186 188 189 189 193 197 198 195 192 194 185 175 167 144 95 76 75 81 87 94 98 100 102 105 108 104 98 89 80 81 83 82 80 78 75 70 65 71 77 72 65 59
183 184 189 204 203 193 209 222 207 207 207 200 189 185 173 127 96 82 85 84 87 91 92 94 95 96 96 92 87 84 81 79 74 73 69 65 53 55 54 53 64 70 70
187 190 191 199 207 200 209 217 220 221 215 213 206 197 178 134 96 82 86 82 86 89 91 93 94 91 86 87 86 82 81 77 76 73 63 62 61 62 61 60 61 62 63
194 196 197 197 207 209 213 214 219 221 219 218 221 221 211 196 163 146 106 83 82 77 79 81 84 85 86 89 90 88 79 78 77 80 87 82 77 74 75 74 71 65 62
202 203 204 204 208 206 214 219 219 219 217 213 222 218 224 216 206 193 192 162 113 65 54 70 81 94 102 99 91 81 77 71 74 85 96 91 82 76 69 67 70 80 76
212 211 212 214 219 220 214 219 220 222 224 226 223 218 217 214 218 213 214 192 197 163 32 27 33 53 112 104 87 79 74 69 75 87 98 95 90 83 87 90 80 77 72
219 219 219 221 224 229 227 219 221 220 225 230 226 224 222 222 221 221 218 210 197 188 170 267 242 275 172 125 105 86 73 78 88 88 91 92 97 96 91 81 73 68 65
224 225 226 228 230 231 233 229 219 223 226 230 233 229 226 224 222 233 224 216 211 198 196 196 206 201 197 133 114 100 94 103 103 101 96 92 86 77 70 68 72 72 64
232 231 233 235 237 236 234 231 228 225 221 227 233 233 228 229 225 231 234 223 213 206 208 200 205 211 218 201 165 125 120 117 113 107 102 96 87 78 71 65 53 44 46
235 236 237 238 240 239 237 234 232 228 223 221 226 235 236 233 233 231 237 228 223 218 203 205 208 216 216 199 178 146 138 130 122 113 102 92 81 70 64 54 40 27 22
236 237 238 240 241 241 239 237 234 232 228 223 225 229 231 235 236 229 235 228 221 222 200 219 204 217 217 194 171 154 147 143 133 117 102 82 68 60 52 52 49 43 37
236 236 237 239 243 242 237 235 233 232 229 222 221 228 232 233 232 242 238 229 221 216 194 204 224 201 215 187 167 156 148 144 133 124 104 80 71 62 56 48 38 31 30
239 238 237 238 238 238 235 232 231 229 225 224 222 225 230 231 236 235 229 230 216 211 225 223 218 221 191 189 177 155 146 144 150 146 121 89 69 57 47 36 29 25 19
241 240 239 239 238 238 237 237 235 231 226 228 220 223 229 231 226 237 218 241 214 214 214 218 220 199 196 191 183 166 150 155 167 165 155 127 70 50 32 25 18 11 8
243 241 240 240 238 237 236 234 231 227 226 220 226 220 223 229 230 234 225 229 227 208 218 237 220 213 206 195 191 183 170 188 181 181 179 165 95 43 22 15 4 4 4
251 242 239 238 238 237 236 232 231 232 230 228 220 219 226 231 226 237 236 224 217 210 239 229 212 216 218 202 198 205 206 199 178 179 192 186 177 77 359 353 358 358 2
249 245 241 238 237 236 235 232 231 232 231 233 230 225 220 221 220 213 219 220 232 228 223 215 210 207 208 209 214 216 219 213 208 193 188 192 193 216 281 335 349 356 357
242 238 238 236 236 236 232 231 231 236 230 223 223 218 214 213 216 216 222 227 224 218 212 208 203 201 205 211 224 221 226 215 215 209 192 189 201 208 220 275 329 340 344